Time,TemperatureF,DewpointF,PressureIn,WindDirection,WindDirectionDegrees,WindSpeedMPH,WindSpeedGustMPH,Humidity,HourlyPrecipIn,Conditions,Clouds,dailyrainin,SoftwareType,DateUTC
2013-04-09 00:03:00,9.5,7.2,29.35,ESE,112,0.0,-999.0,90,-99.99,,,0.00,Acu-Link.com,2013-04-09 06:03:00,
2013-04-09 00:18:00,8.2,5.6,29.35,ESE,112,0.0,-999.0,89,-99.99,,,0.00,Acu-Link.com,2013-04-09 06:18:00,
2013-04-09 01:49:00,5.5,3.0,29.39,ESE,112,2.2,-999.0,89,-99.99,,,0.00,Acu-Link.com,2013-04-09 07:49:00,
2013-04-09 02:05:00,4.8,2.5,29.37,ESE,112,4.2,-999.0,90,-99.99,,,0.00,Acu-Link.com,2013-04-09 08:05:00,
2013-04-09 02:20:00,4.8,2.5,29.36,ESE,112,1.1,-999.0,90,-99.99,,,0.00,Acu-Link.com,2013-04-09 08:20:00,
2013-04-09 02:35:00,4.8,2.8,29.34,ESE,112,3.7,-999.0,91,-99.99,,,0.00,Acu-Link.com,2013-04-09 08:35:00,
2013-04-09 02:50:00,4.6,2.3,29.34,ESE,112,1.7,-999.0,90,-99.99,,,0.00,Acu-Link.com,2013-04-09 08:50:00,
2013-04-09 03:06:00,4.5,2.2,29.39,ESE,112,3.2,-999.0,90,-99.99,,,0.00,Acu-Link.com,2013-04-09 09:06:00,
2013-04-09 03:21:00,4.1,1.8,29.39,ESE,112,0.0,-999.0,90,-99.99,,,0.00,Acu-Link.com,2013-04-09 09:21:00,
2013-04-09 03:51:00,3.7,1.2,29.40,ESE,112,0.0,-999.0,89,-99.99,,,0.00,Acu-Link.com,2013-04-09 09:51:00,
2013-04-09 04:06:00,3.7,1.0,29.39,ESE,112,0.0,-999.0,88,-99.99,,,0.00,Acu-Link.com,2013-04-09 10:06:00,
2013-04-09 04:37:00,3.0,0.0,29.38,ESE,112,0.0,-999.0,87,-99.99,,,0.00,Acu-Link.com,2013-04-09 10:37:00,
2013-04-09 04:52:00,2.7,-0.3,29.38,ESE,112,0.0,-999.0,87,-99.99,,,0.00,Acu-Link.com,2013-04-09 10:52:00,
2013-04-09 05:07:00,1.8,-1.2,29.38,ESE,112,0.0,-999.0,87,-99.99,,,0.00,Acu-Link.com,2013-04-09 11:07:00,
2013-04-09 05:22:00,1.4,-1.6,29.38,ESE,112,0.0,-999.0,87,-99.99,,,0.00,Acu-Link.com,2013-04-09 11:22:00,
2013-04-09 05:37:00,1.0,-1.7,29.40,ESE,112,0.0,-999.0,88,-99.99,,,0.00,Acu-Link.com,2013-04-09 11:37:00,
2013-04-09 08:55:00,1.9,-1.8,29.45,ESE,112,0.0,-999.0,84,-99.99,,,0.00,Acu-Link.com,2013-04-09 14:55:00,
2013-04-09 09:10:00,2.8,-1.4,29.44,ESE,112,0.0,-999.0,82,-99.99,,,0.00,Acu-Link.com,2013-04-09 15:10:00,
2013-04-09 09:25:00,2.8,-1.4,29.45,ESE,112,0.0,-999.0,82,-99.99,,,0.00,Acu-Link.com,2013-04-09 15:25:00,
2013-04-09 09:40:00,3.4,-1.1,29.44,ESE,112,0.0,-999.0,81,-99.99,,,0.00,Acu-Link.com,2013-04-09 15:40:00,
2013-04-09 09:55:00,1.0,-2.7,29.43,ESE,112,0.0,-999.0,84,-99.99,,,0.00,Acu-Link.com,2013-04-09 15:55:00,
2013-04-09 10:10:00,1.9,-2.0,29.44,ESE,112,0.0,-999.0,83,-99.99,,,0.00,Acu-Link.com,2013-04-09 16:10:00,
2013-04-09 10:25:00,2.3,-1.9,29.44,ESE,112,0.0,-999.0,82,-99.99,,,0.00,Acu-Link.com,2013-04-09 16:25:00,
2013-04-09 10:41:00,3.7,-1.9,29.45,ESE,112,0.0,-999.0,77,-99.99,,,0.00,Acu-Link.com,2013-04-09 16:41:00,
2013-04-09 10:56:00,5.7,-0.2,29.44,ESE,112,0.0,-999.0,76,-99.99,,,0.00,Acu-Link.com,2013-04-09 16:56:00,
2013-04-09 11:41:00,6.1,-0.1,29.46,ESE,112,0.0,-999.0,75,-99.99,,,0.00,Acu-Link.com,2013-04-09 17:41:00,
2013-04-09 12:11:00,7.0,-0.4,29.45,ESE,112,0.0,-999.0,71,-99.99,,,0.00,Acu-Link.com,2013-04-09 18:11:00,
2013-04-09 12:27:00,10.0,2.2,29.44,ESE,112,0.0,-999.0,70,-99.99,,,0.00,Acu-Link.com,2013-04-09 18:27:00,
2013-04-09 12:42:00,12.9,4.4,29.44,ESE,112,0.0,-999.0,68,-99.99,,,0.00,Acu-Link.com,2013-04-09 18:42:00,
2013-04-09 12:57:00,10.2,2.1,29.45,ESE,112,3.2,-999.0,69,-99.99,,,0.00,Acu-Link.com,2013-04-09 18:57:00,
2013-04-09 13:12:00,8.1,0.7,29.44,ESE,112,3.2,-999.0,71,-99.99,,,0.00,Acu-Link.com,2013-04-09 19:12:00,
2013-04-09 13:27:00,8.2,1.1,29.43,ESE,112,2.2,-999.0,72,-99.99,,,0.00,Acu-Link.com,2013-04-09 19:27:00,
2013-04-09 13:42:00,7.7,0.6,29.44,ESE,112,2.2,-999.0,72,-99.99,,,0.00,Acu-Link.com,2013-04-09 19:42:00,
2013-04-09 13:57:00,9.9,2.1,29.44,ESE,112,4.2,-999.0,70,-99.99,,,0.00,Acu-Link.com,2013-04-09 19:57:00,
2013-04-09 14:13:00,13.3,3.8,29.44,ESE,112,4.7,-999.0,65,-99.99,,,0.00,Acu-Link.com,2013-04-09 20:13:00,
2013-04-09 14:28:00,12.0,3.5,29.45,NW,315,4.2,-999.0,68,-99.99,,,0.00,Acu-Link.com,2013-04-09 20:28:00,
2013-04-09 14:43:00,10.9,1.8,29.44,NW,315,3.7,-999.0,66,-99.99,,,0.00,Acu-Link.com,2013-04-09 20:43:00,
2013-04-09 14:58:00,5.5,-1.0,29.45,NW,315,2.7,-999.0,74,-99.99,,,0.00,Acu-Link.com,2013-04-09 20:58:00,
2013-04-09 15:13:00,5.2,-1.0,29.45,NW,315,3.2,-999.0,75,-99.99,,,0.00,Acu-Link.com,2013-04-09 21:13:00,
2013-04-09 15:28:00,8.4,0.7,29.45,SSW,202,2.7,-999.0,70,-99.99,,,0.00,Acu-Link.com,2013-04-09 21:28:00,
2013-04-09 15:43:00,10.8,2.0,29.46,West,270,3.2,-999.0,67,-99.99,,,0.00,Acu-Link.com,2013-04-09 21:43:00,
2013-04-09 16:14:00,10.0,0.9,29.47,WSW,247,3.7,-999.0,66,-99.99,,,0.00,Acu-Link.com,2013-04-09 22:14:00,
2013-04-09 16:29:00,10.0,1.3,29.46,WSW,247,2.7,-999.0,67,-99.99,,,0.00,Acu-Link.com,2013-04-09 22:29:00,
2013-04-09 16:59:00,6.1,-0.4,29.47,SW,225,3.2,-999.0,74,-99.99,,,0.00,Acu-Link.com,2013-04-09 22:59:00,
2013-04-09 17:14:00,4.6,-1.5,29.48,SW,225,1.1,-999.0,75,-99.99,,,0.00,Acu-Link.com,2013-04-09 23:14:00,
2013-04-09 17:29:00,4.6,-1.8,29.49,SW,225,1.7,-999.0,74,-99.99,,,0.00,Acu-Link.com,2013-04-09 23:29:00,
2013-04-09 17:44:00,3.2,-2.6,29.50,SW,225,2.7,-999.0,76,-99.99,,,0.00,Acu-Link.com,2013-04-09 23:44:00,
2013-04-09 17:59:00,2.8,-2.5,29.49,SW,225,1.7,-999.0,78,-99.99,,,0.00,Acu-Link.com,2013-04-09 23:59:00,
2013-04-09 18:14:00,2.1,-3.2,29.50,SW,225,1.1,-999.0,78,-99.99,,,0.00,Acu-Link.com,2013-04-10 00:14:00,
2013-04-09 18:30:00,1.8,-2.9,29.50,SW,225,1.1,-999.0,80,-99.99,,,0.00,Acu-Link.com,2013-04-10 00:30:00,
2013-04-09 18:45:00,1.2,-3.5,29.50,SW,225,0.0,-999.0,80,-99.99,,,0.00,Acu-Link.com,2013-04-10 00:45:00,
2013-04-09 19:00:00,0.5,-3.7,29.52,SW,225,0.0,-999.0,82,-99.99,,,0.00,Acu-Link.com,2013-04-10 01:00:00,
2013-04-09 19:15:00,0.1,-4.3,29.52,SW,225,0.0,-999.0,81,-99.99,,,0.00,Acu-Link.com,2013-04-10 01:15:00,
2013-04-09 19:30:00,-0.8,-4.9,29.53,SW,225,0.0,-999.0,82,-99.99,,,0.00,Acu-Link.com,2013-04-10 01:30:00,
2013-04-09 19:45:00,-1.1,-5.0,29.53,SW,225,0.0,-999.0,83,-99.99,,,0.00,Acu-Link.com,2013-04-10 01:45:00,
2013-04-09 20:00:00,-1.3,-4.9,29.54,SW,225,0.0,-999.0,84,-99.99,,,0.00,Acu-Link.com,2013-04-10 02:00:00,
2013-04-09 20:16:00,-1.7,-5.1,29.54,SW,225,0.0,-999.0,85,-99.99,,,0.00,Acu-Link.com,2013-04-10 02:16:00,
2013-04-09 21:16:00,-1.8,-5.4,29.57,SW,225,0.0,-999.0,84,-99.99,,,0.00,Acu-Link.com,2013-04-10 03:16:00,
2013-04-09 21:46:00,-3.3,-7.1,29.57,SW,225,0.0,-999.0,83,-99.99,,,0.00,Acu-Link.com,2013-04-10 03:46:00,
2013-04-09 22:01:00,-3.6,-7.2,29.57,SW,225,0.0,-999.0,84,-99.99,,,0.00,Acu-Link.com,2013-04-10 04:01:00,
2013-04-09 22:16:00,-4.0,-7.3,29.57,SW,225,0.0,-999.0,85,-99.99,,,0.00,Acu-Link.com,2013-04-10 04:16:00,
2013-04-09 22:32:00,-4.0,-7.3,29.56,SW,225,0.0,-999.0,85,-99.99,,,0.00,Acu-Link.com,2013-04-10 04:32:00,
2013-04-09 22:47:00,-4.9,-8.0,29.56,SW,225,0.0,-999.0,86,-99.99,,,0.00,Acu-Link.com,2013-04-10 04:47:00,
2013-04-09 23:02:00,-4.2,-7.5,29.56,SW,225,0.0,-999.0,85,-99.99,,,0.00,Acu-Link.com,2013-04-10 05:02:00,
2013-04-09 23:32:00,-4.7,-8.0,29.56,SW,225,0.0,-999.0,85,-99.99,,,0.00,Acu-Link.com,2013-04-10 05:32:00,
2013-04-09 23:47:00,-4.5,-7.6,29.55,SW,225,0.0,-999.0,86,-99.99,,,0.00,Acu-Link.com,2013-04-10 05:47:00,